Baku, Azerbaijan

5:37 PM +04 on June 20, 2018 (GMT +0400)
Bina

Weather History for UBBB - March, 2018

Change the Weather History Date:

Sunday, March 25, 2018

  Actual Average Record
Temperature  
Mean Temperature 50 °F -  
Max Temperature 55 °F - - ()
Min Temperature 44 °F - - ()
Degree Days  
Heating Degree Days 16    
Moisture  
Dew Point 45 °F    
Average Humidity 83    
Maximum Humidity 100    
Minimum Humidity 67    
Precipitation  
Precipitation 0.00 in - - ()
Sea Level Pressure  
Sea Level Pressure 29.90 in    
Wind  
Wind Speed 13 mph ()    
Max Wind Speed 30 mph    
Max Gust Speed 41 mph    
Visibility 6.1 miles    
Events Rain    
T = Trace of Precipitation, MM = Missing Value Source: Averaged Metar Reports

Daily Weather History Graph

Daily Weather History Graph

Search for Another Location

Airport or City:

Astronomy

Mar. 25, 2018 Rise Set
Actual Time 6:35 AM +04 6:56 PM +04
Civil Twilight 6:08 AM +04 7:23 PM +04
Nautical Twilight 5:36 AM +04 7:56 PM +04
Astronomical Twilight 5:03 AM +04 8:28 PM +04
Moon 12:15 PM +04 (3/25) 2:16 AM +04 (3/25)
Length of Visible Light 13h 15m
Length of Day
12h 21m
First Quarter, 58% of the Moon is Illuminated
Mar 25
First Quarter
Mar 31
Full
Apr 8
Last Quarter
Apr 16
New
Apr 23
First Quarter

Hourly Weather History & Observations

Time (+04) Temp. Windchill Dew Point Humidity Pressure Visibility Wind Dir Wind Speed Gust Speed Precip Events Conditions
12:00 AM 46.4 °F - 46.4 °F 100% 29.50 in 6.2 mi Calm Calm - N/A   Mostly Cloudy
12:30 AM 46.4 °F - 44.6 °F 93% 29.53 in 6.2 mi NW 2.3 mph - N/A   Mostly Cloudy
1:00 AM 45 °F - 43 °F 88% 29.52 in 6 mi Calm Calm - -   Overcast
1:00 AM 46.4 °F - 44.6 °F 93% 29.53 in 6.2 mi WNW 2.3 mph - N/A   Mostly Cloudy
1:30 AM 46.4 °F 45.2 °F 44.6 °F 93% 29.50 in - South 3.5 mph - N/A   Clear
2:00 AM 46.4 °F 44.3 °F 44.6 °F 93% 29.50 in - North 4.6 mph - N/A   Clear
2:30 AM 46.4 °F 42.9 °F 44.6 °F 93% 29.53 in - NNW 6.9 mph - N/A   Clear
3:00 AM 48.2 °F - 44.6 °F 87% 29.56 in - NNW 9.2 mph - N/A   Clear
3:30 AM 48.2 °F - 42.8 °F 82% 29.62 in - NW 18.4 mph - N/A   Clear
4:00 AM 49 °F - 42 °F 71% 29.65 in 6 mi WNW 20.1 mph - -   Overcast
4:00 AM 50.0 °F - 42.8 °F 76% 29.65 in - NNW 20.7 mph - N/A   Clear
4:30 AM 48.2 °F - 42.8 °F 82% 29.68 in - NW 25.3 mph - N/A   Clear
5:00 AM 46.4 °F 38.3 °F 42.8 °F 87% 29.71 in 6.2 mi NW 23.0 mph 36.8 mph N/A Rain Light Rain Showers
5:30 AM 46.4 °F 37.9 °F 44.6 °F 93% 29.71 in 6.2 mi NW 25.3 mph 36.8 mph N/A   Overcast
6:00 AM 48.2 °F - 44.6 °F 87% 29.77 in 6.2 mi NW 20.7 mph 32.2 mph N/A   Overcast
6:30 AM 48.2 °F - 44.6 °F 87% 29.80 in 6.2 mi NW 20.7 mph 32.2 mph N/A   Overcast
7:00 AM 48 °F - 44 °F 80% 29.81 in 6 mi NW 24.6 mph - -   Overcast
7:00 AM 48.2 °F - 44.6 °F 87% 29.83 in 6.2 mi NW 25.3 mph - N/A   Overcast
7:30 AM 50.0 °F - 44.6 °F 82% 29.83 in 6.2 mi NNW 23.0 mph 34.5 mph N/A   Overcast
8:00 AM 50.0 °F - 44.6 °F 82% 29.83 in 6.2 mi NNW 26.5 mph 38.0 mph N/A   Mostly Cloudy
8:30 AM 50.0 °F - 44.6 °F 82% 29.86 in 6.2 mi NNW 29.9 mph 41.4 mph N/A   Mostly Cloudy
9:00 AM 50.0 °F - 46.4 °F 87% 29.89 in 6.2 mi NNW 25.3 mph 36.8 mph N/A   Mostly Cloudy
9:30 AM 50.0 °F - 44.6 °F 82% 29.89 in 6.2 mi NNW 29.9 mph - N/A   Mostly Cloudy
10:00 AM 50 °F - 45 °F 75% 29.91 in 6 mi WNW 26.8 mph - -   Mostly Cloudy
10:00 AM 51.8 °F - 46.4 °F 82% 29.92 in 6.2 mi NNW 29.9 mph - N/A   Mostly Cloudy
10:30 AM 51.8 °F - 46.4 °F 82% 29.92 in - NNW 27.6 mph - N/A   Clear
11:00 AM 51.8 °F - 44.6 °F 76% 29.92 in - NNW 24.2 mph - N/A   Clear
11:30 AM 53.6 °F - 46.4 °F 77% 29.92 in 6.2 mi NNW 24.2 mph - N/A   Mostly Cloudy
12:00 PM 51.8 °F - 46.4 °F 82% 29.92 in 6.2 mi NNW 23.0 mph 34.5 mph N/A   Mostly Cloudy
12:30 PM 53.6 °F - 46.4 °F 77% 29.95 in 6.2 mi North 23.0 mph - N/A   Mostly Cloudy
1:00 PM 55 °F - 47 °F 68% 29.96 in 6 mi NW 24.6 mph - -   Partly Cloudy
1:00 PM 55.4 °F - 46.4 °F 72% 29.95 in - North 24.2 mph - N/A   Clear
1:30 PM 55.4 °F - 48.2 °F 77% 29.98 in - NNW 23.0 mph - N/A   Clear
2:00 PM 57.2 °F - 48.2 °F 72% 29.98 in - North 23.0 mph - N/A   Clear
2:30 PM 57.2 °F - 46.4 °F 67% 30.01 in - North 19.6 mph - N/A   Clear
3:00 PM 55.4 °F - 46.4 °F 72% 30.01 in - NNW 17.3 mph - N/A   Clear
3:30 PM 55.4 °F - 46.4 °F 72% 30.04 in - NNW 16.1 mph - N/A   Clear
4:00 PM 54 °F - 46 °F 67% 30.03 in 6 mi NW 15.7 mph - -  
4:00 PM 55.4 °F - 46.4 °F 72% 30.04 in - North 16.1 mph - N/A   Clear
4:30 PM 55.4 °F - 46.4 °F 72% 30.04 in - North 16.1 mph - N/A   Clear
5:00 PM 53.6 °F - 46.4 °F 77% 30.06 in - North 13.8 mph - N/A   Clear
6:00 PM 51.8 °F - 46.4 °F 82% 30.09 in - North 11.5 mph - N/A   Clear
6:30 PM 50.0 °F - 44.6 °F 82% 30.09 in - North 10.4 mph - N/A   Clear
7:00 PM 49 °F - 44 °F 77% 30.12 in 6 mi NW 6.7 mph - -   Partly Cloudy
7:00 PM 48.2 °F - 44.6 °F 87% 30.12 in - North 6.9 mph - N/A   Clear
7:30 PM 48.2 °F - 44.6 °F 87% 30.12 in - North 12.7 mph - N/A   Clear
8:00 PM 48.2 °F - 44.6 °F 87% 30.15 in - North 10.4 mph - N/A   Clear
8:30 PM 48.2 °F - 44.6 °F 87% 30.15 in - NNW 11.5 mph - N/A   Clear
9:00 PM 48.2 °F - 44.6 °F 87% 30.18 in 6.2 mi NNW 13.8 mph - N/A   Mostly Cloudy
9:30 PM 46.4 °F 41.1 °F 44.6 °F 93% 30.18 in 6.2 mi NNW 11.5 mph - N/A   Mostly Cloudy
10:00 PM 46 °F - 44 °F 89% 30.20 in 6 mi NW 8.9 mph - -   Mostly Cloudy
10:00 PM 46.4 °F 41.1 °F 44.6 °F 93% 30.18 in 6.2 mi NNW 11.5 mph - N/A   Scattered Clouds
10:30 PM 46.4 °F 40.7 °F 44.6 °F 93% 30.21 in 6.2 mi NNW 12.7 mph - N/A   Mostly Cloudy
11:00 PM 46.4 °F 40.4 °F 44.6 °F 93% 30.21 in 6.2 mi North 13.8 mph - N/A   Mostly Cloudy
11:30 PM 46.4 °F 41.1 °F 44.6 °F 93% 30.21 in 6.2 mi North 11.5 mph - N/A   Overcast